Flag for Argentina Weather past 2 weeks in Buenos Aires, Argentina

Now
57 °F

Sunny.


Feels Like: 57 °F
Forecast: 50 / 64 °F
Wind: 5 mph from East

Location: Buenos Aires Airport

Current Time: Sep 16, 2014 at 8:51:18 AM

Latest Report: Sep 16, 2014 at 8:00 AM


Visibility: 10 mi

Pressure: 30.09 "Hg

Humidity: 59%

Dew point: 43 °F

Location of Buenos AiresLocation

Historic Weather in Buenos Aires — Graph

°F

Buenos Aires temperature yesterday

Maximum temperature yesterday: 68 °F (at 1:00 PM)
Minimum temperature yesterday: 55 °F (at 6:00 AM)
Average temperature yesterday: 61 °F

Past Weeks' High & Low Weather Summary

 TemperatureHumidityPressure
High70 °F (Sep 7, 3:00 PM)100% (Sep 6, 8:00 AM)30.18 "Hg (Sep 6, 8:00 AM)
Low50 °F (Sep 10, 7:00 AM)24% (Sep 11, 1:00 PM)29.53 "Hg (Sep 9, 5:00 AM)
Average61 °F72%29.98 "Hg
* Reported Sep 1 7:00 AM — Sep 16 7:00 AM, Buenos Aires, Weather by CustomWeather, © 2014

Note: Actual official high and low records may vary slightly from our data, if they occured in-between our weather recording intervals... More about our weather records

Advertising

Buenos Aires weather history for previous 24 hours

 ConditionsComfort  
Time TempWeatherWind HumidityBarometerVisibility
7:00 AM
Sep 16
54 °FSunny.2 mph67%30.09 "Hg10 mi
6:00 AM52 °FSunny.2 mph77%30.07 "Hg10 mi
5:00 AM50 °FClear.5 mph76%30.07 "Hg10 mi
4:00 AM50 °FClear.2 mph76%30.07 "Hg10 mi
3:00 AM52 °FClear.3 mph67%30.09 "Hg10 mi
2:00 AM54 °FClear.3 mph67%30.09 "Hg10 mi
1:00 AM54 °FClear.3 mph67%30.09 "Hg10 mi
12:00 AM55 °FClear.3 mph63%30.09 "Hg10 mi
11:00 PM
Sep 15
57 °FClear.5 mph59%30.09 "Hg10 mi
10:00 PM59 °FClear.5 mph48%30.09 "Hg10 mi
9:00 PM61 °FClear.8 mph45%30.09 "Hg10 mi
8:00 PM61 °FClear.9 mph45%30.07 "Hg10 mi
7:00 PM64 °FClear.10 mph34%30.07 "Hg10 mi
6:00 PM66 °FClear.13 mph32%30.07 "Hg10 mi
5:00 PM68 °FSunny.13 mph28%30.07 "Hg10 mi
4:00 PM68 °FSunny.14 mph28%30.04 "Hg10 mi
3:00 PM68 °FSunny.14 mph30%30.07 "Hg10 mi
2:00 PM68 °FSunny.14 mph30%30.07 "Hg10 mi
1:00 PM68 °FSunny.15 mph38%30.07 "Hg10 mi
12:00 PM64 °FPassing clouds.10 mph46%30.07 "HgN/A
11:00 AM63 °FSunny.13 mph56%30.07 "Hg10 mi
10:00 AM61 °FSunny.14 mph68%30.07 "Hg10 mi
9:00 AM59 °FSunny.14 mph72%30.04 "Hg10 mi
8:00 AM57 °FSunny.9 mph77%30.04 "Hg10 mi
Weather by CustomWeather, © 2014

See weather overviewHow to use our weather pages